CZ-6A DEB, 55899

Orbit data source: Space-Track

CZ-6A DEB, 55899 is space debris in SSO originally from a launch on Fri, 11 Nov 2022 UTC launched from the Taiyaun Space Center, China (TSC). Debris objects in space refer to the collection of defunct objects orbiting the Earth. Examples of debris include non-operational satellites, rocket bodies, and fragments generated from explosions, collisions, or faulty payload assembly.

Loading next visibility...
Identifier
55899, 2022-151AAX
Orbit
SSO
Country
Flag of CNCN / PRC
Related business
Manufacturer
SAST
Mission
Spacecraft
Bus & Motor
Unknown
Mass
Unknown
Launch date (UTC)
2022-11-11 (4 years ago)
Launch vehicle
Unknown
Launch site
Taiyaun Space Center, China (TSC)
Object type
Payload
Rocket body
Debris
Shape & HBR
Unknown shape, 0.1 m
Radar Cross Section
Small (<0.1 m²)

Expand to show TLE details & history
Last TLE update: 20 hours ago

TLE from 20 hours ago
0 CZ-6A DEB
1 55899U 22151AAX 26235.67284354  .00019001  00000-0  20654-2 0  9994
2 55899  98.6250 317.2812 0049444  33.9952 326.4413 14.87231723194643
Epoch: 2026-08-23T16:08Z
TLE epoch observation values (Epoch: 2026-08-23T16:08:53.681Z)
Latitude
-0.00003°
Longitude
103.092°
Altitude
580.866 km
Speed
7.586 km/s
True Right ascension
21h 09m 07s
True Declination
0° 00' 00"
Sunlit
Object was in full shadow at epoch
Visualization orbit readout
Latitude
Unknown
Longitude
Unknown
Altitude
Unknown
Speed
Unknown
Apparent Right ascension
Unknown
Apparent Declination
Unknown
Sunlit
N/A
Visualization observer readout
Local Sidereal Time
03:48:15
Azimuth
Unknown
Elevation
Unknown
Doppler factor
Unknown
Orbital elements
Apogee altitude
638.176 km
Perigee altitude
569.134 km
Semi-major axis
6,981.792 km
Eccentricity
0.00494
Inclination
98.625°
RAAN
317.2812°
Arg. of periapsis
33.9952°
True anomaly
326.12648°
Mean anomaly
326.4413°
Eccentric anomaly
326.28405°
Mean motion
3.72043 °/min
Orbital period
96.76 mins
BSTAR
0.0020654
Loading maneuver chart data...
Computing Atmospheric mass density...
Loading historical data...
Loading historical data...
Loading historical data...
Loading historical data...
Loading historical data...
Loading historical data...
Loading historical data...

Documentation

Showing up to 5 results
|